User: anonymous
Location: Brno
(49.2000°N, 16.6330°E)
Time: 16:29:11
(UTC+02:00)
Language:

Cosmos 1459 Rocket - Orbit

View from above orbital plane
View from above orbital plane
View from above satellite
View from above satellite

Ground track
Ground track

The orbit data is extracted from the following two-line orbital elements,

1 14059U 83042B   14274.48918429  .00000029  00000-0  13158-4 0  4054
2 14059 082.9697 076.4537 0043351 164.7624 248.5625 13.78463308579400
Epoch (UTC): 01 October 2014 11:44:25
Eccentricity: 0.0043351
inclination: 82.9697°
perigee height: 937 km
apogee height: 1001 km
right ascension of ascending node: 76.4537°
argument of perigee: 164.7624°
revolutions per day: 13.78463308
mean anomaly at epoch: 248.5625°
orbit number at epoch: 57940

The dashed part of the orbit path shows where the satellite is in the earth's shadow,  

DLR